Location: Ebenezer
(18.2167°N, 63.0667°W)
Time: 20:59:18
(UTC+00:00)

CENTAUR R/B - Pass Details

Date: 26 January 2020
Orbit: 766 x 1422 km, 63.5° (Epoch: 19 February)

Event Time Altitude Azimuth Distance (km) Brightness Sun altitude
Rises 22:27:42 0° 174° (S) 3,228 5.4 -6.4°
Reaches altitude 10° 22:30:30 10° 159° (SSE) 2,333 4.5 -7.0°
Maximum altitude 22:34:35 22° 108° (ESE) 1,700 3.3 -8.0°
Drops below altitude 10° 22:38:57 10° 59° (ENE) 2,529 4.1 -8.9°
Enters shadow 22:39:03 10° 58° (ENE) 2,560 4.1 -9.0°
